Основна » Време у Того » Дапаон » Дапаон » Meteograms hourly weather

Дапаон, метеограме

Дапаон: време по сату
Петак, 14 Маја
Време Падавине Температура Осећа се Притисак Влажност Ветар
08:00 0 мм +30.3° +32° 731.000 мм.ж.с 54% 5 м/с, Ј
09:00 0 мм +31.6° +33.1° 731.000 мм.ж.с 50% 5 м/с, Ј
10:00 0 мм +33.2° +34.5° 731.000 мм.ж.с 45% 4 м/с, Ј
11:00 0 мм +34.7° +35.7° 730.000 мм.ж.с 39% 4 м/с, Ј
12:00 0 мм +36.3° +36.9° 730.000 мм.ж.с 34% 4 м/с, Ј
13:00 0 мм +37° +37.3° 729.000 мм.ж.с 31% 3 м/с, Ј
14:00 0 мм +37.7° +37.8° 729.000 мм.ж.с 29% 3 м/с, Ј
15:00 0 мм +38.4° +38.1° 728.000 мм.ж.с 26% 3 м/с, ЈИ
16:00 0.06 мм +36.5° +36.6° 728.000 мм.ж.с 31% 5 м/с, ЈИ
17:00 0.06 мм +34.5° +35° 728.000 мм.ж.с 36% 7 м/с, И
18:00 0.06 мм +32.5° +33.2° 728.000 мм.ж.с 41% 9 м/с, И
19:00 0.27 мм +31.7° +32.2° 729.000 мм.ж.с 40% 8 м/с, И
20:00 0.27 мм +30.9° +31.1° 730.000 мм.ж.с 39% 6 м/с, ЈИ
21:00 0.27 мм +30° +30.1° 730.000 мм.ж.с 38% 5 м/с, ЈИ
22:00 0.02 мм +30.5° +30.5° 730.000 мм.ж.с 37% 4 м/с, ЈИ
23:00 0.02 мм +31° +31° 730.000 мм.ж.с 36% 2 м/с, ЈИ
Субота, 15 Маја
Време Падавине Температура Осећа се Притисак Влажност Ветар
00:00 0.02 мм +31.5° +31.5° 729.000 мм.ж.с 35% 1 м/с, СИ
01:00 0.13 мм +31° +31.2° 729.000 мм.ж.с 38% 1 м/с, ЈИ
02:00 0.13 мм +30.5° +30.8° 729.000 мм.ж.с 40% 1 м/с, Ј
03:00 0.13 мм +30° +30.5° 729.000 мм.ж.с 43% 1 м/с, Ј
04:00 0.01 мм +29.5° +30.2° 730.000 мм.ж.с 46% 1 м/с, Ј
05:00 0.01 мм +29° +29.8° 730.000 мм.ж.с 48% 2 м/с, Ј
06:00 0.01 мм +28.5° +29.5° 730.000 мм.ж.с 51% 3 м/с, Ј
07:00 0 мм +29.5° +30.7° 731.000 мм.ж.с 50% 4 м/с, Ј
08:00 0 мм +30.6° +31.8° 731.000 мм.ж.с 49% 5 м/с, ЈЗ
09:00 0 мм +31.6° +33.1° 731.000 мм.ж.с 49% 6 м/с, ЈЗ
10:00 0 мм +33° +34.3° 731.000 мм.ж.с 45% 5 м/с, ЈЗ
11:00 0 мм +34.4° +35.5° 731.000 мм.ж.с 41% 4 м/с, ЈЗ
12:00 0 мм +35.8° +36.6° 731.000 мм.ж.с 37% 3 м/с, Ј
13:00 0 мм +36.4° +37° 730.000 мм.ж.с 34% 3 м/с, Ј
14:00 0 мм +37.1° +37.5° 730.000 мм.ж.с 32% 3 м/с, Ј
15:00 0 мм +37.7° +37.9° 729.000 мм.ж.с 30% 3 м/с, ЈИ
16:00 0.1 мм +36.5° +36.9° 729.000 мм.ж.с 33% 4 м/с, ЈИ
17:00 0.1 мм +35.2° +35.7° 729.000 мм.ж.с 35% 5 м/с, ЈИ
18:00 0.1 мм +34° +34.6° 729.000 мм.ж.с 38% 6 м/с, ЈИ
19:00 0.51 мм +31.9° +32.9° 729.000 мм.ж.с 44% 5 м/с, ЈИ
20:00 0.51 мм +29.9° +31° 729.000 мм.ж.с 49% 5 м/с, ЈИ
21:00 0.51 мм +27.8° +29.1° 730.000 мм.ж.с 55% 5 м/с, Ј
22:00 0.02 мм +28.1° +29.3° 730.000 мм.ж.с 54% 4 м/с, Ј
23:00 0.02 мм +28.4° +29.6° 730.000 мм.ж.с 54% 4 м/с, Ј
Недеља, 16 Маја
Време Падавине Температура Осећа се Притисак Влажност Ветар
00:00 0.02 мм +28.6° +29.9° 731.000 мм.ж.с 54% 3 м/с, Ј
01:00 0 мм +28.1° +29.5° 730.000 мм.ж.с 56% 3 м/с, Ј
02:00 0 мм +27.6° +29° 730.000 мм.ж.с 58% 3 м/с, Ј
03:00 0 мм +27° +28.6° 730.000 мм.ж.с 60% 2 м/с, ЈЗ
04:00 0 мм +27° +28.5° 730.000 мм.ж.с 60% 3 м/с, ЈЗ
05:00 0 мм +26.9° +28.4° 730.000 мм.ж.с 60% 3 м/с, ЈЗ
06:00 0 мм +26.9° +28.4° 730.000 мм.ж.с 61% 3 м/с, ЈЗ
07:00 0 мм +28° +29.6° 731.000 мм.ж.с 58% 4 м/с, ЈЗ

Такође

Meteograms hourly weather Мапе времена Преглед времена
Meteograms hourly weather Мапе времена Преглед времена
 
Време у Србији:
О проjекту
© meteoprog.rs 2003-2021.
Meteoprog.ua - погода в Украине 0.0496
sitemap